| time (UTC) | temp F | wind direction | speed MPH | gust MPH | rain 1hr in | rain 24hr in | rain mn in | humidity % | barometer mb |
| 20260506062027 | 68 | 259 | 4.0 | 7.0 | 0.00 | 0.00 | 0.00 | 46 | 1014.9 |
| 20260506061536 | 68 | 269 | 2.0 | 7.0 | 0.00 | 0.00 | 0.00 | 47 | 1014.9 |
| 20260506061028 | 68 | 222 | 2.0 | 7.0 | 0.00 | 0.00 | 0.00 | 48 | 1014.9 |
| 20260506060531 | 68 | 198 | 2.0 | 6.0 | 0.00 | 0.00 | 0.00 | 48 | 1014.8 |
| 20260506051027 | 64 | 163 | 1.0 | 4.0 | 0.00 | 0.00 | 0.00 | 54 | 1014.7 |
| 20260506050530 | 63 | 164 | 2.0 | 4.0 | 0.00 | 0.00 | 0.00 | 54 | 1014.6 |
| 20260506045026 | 63 | 0 | 0.0 | 3.0 | 0.00 | 0.00 | 0.00 | 55 | 1014.5 |
| 20260506044536 | 62 | 167 | 1.0 | 3.0 | 0.00 | 0.00 | 0.00 | 57 | 1014.6 |
| 20260506044028 | 62 | 167 | 1.0 | 4.0 | 0.00 | 0.00 | 0.00 | 59 | 1014.5 |
| 20260506043527 | 61 | 167 | 2.0 | 5.0 | 0.00 | 0.00 | 0.00 | 59 | 1014.5 |
| 20260506043035 | 61 | 167 | 3.0 | 5.0 | 0.00 | 0.00 | 0.00 | 59 | 1014.4 |
| 20260506042527 | 60 | 170 | 3.0 | 5.0 | 0.00 | 0.00 | 0.00 | 60 | 1014.5 |
| 20260506042029 | 60 | 172 | 3.0 | 5.0 | 0.00 | 0.00 | 0.00 | 61 | 1014.5 |
| 20260506041548 | 60 | 174 | 1.0 | 3.0 | 0.00 | 0.00 | 0.00 | 60 | 1014.5 |
| 20260506041027 | 59 | 174 | 2.0 | 3.0 | 0.00 | 0.00 | 0.00 | 61 | 1014.4 |
| 20260506040527 | 59 | 174 | 2.0 | 5.0 | 0.00 | 0.00 | 0.00 | 61 | 1014.3 |
| 20260506040038 | 59 | 174 | 2.0 | 5.0 | 0.00 | 0.00 | 0.00 | 61 | 1014.3 |
| 20260506035527 | 59 | 176 | 2.0 | 4.0 | 0.00 | 0.00 | 0.00 | 61 | 1014.3 |
| 20260506035029 | 60 | 178 | 2.0 | 4.0 | 0.00 | 0.00 | 0.00 | 61 | 1014.0 |
| 20260506034536 | 60 | 178 | 0.0 | 3.0 | 0.00 | 0.00 | 0.00 | 60 | 1014.0 |
| 20260506034031 | 60 | 0 | 0.0 | 4.0 | 0.00 | 0.00 | 0.00 | 59 | 1013.9 |
| 20260506033527 | 60 | 178 | 2.0 | 5.0 | 0.00 | 0.00 | 0.00 | 59 | 1013.9 |
| 20260506033039 | 60 | 184 | 2.0 | 5.0 | 0.00 | 0.00 | 0.00 | 60 | 1013.9 |
| 20260506032527 | 60 | 175 | 3.0 | 6.0 | 0.00 | 0.00 | 0.00 | 60 | 1013.8 |
| 20260506032027 | 60 | 192 | 2.0 | 9.0 | 0.00 | 0.00 | 0.00 | 61 | 1013.8 |
| 20260506031534 | 60 | 219 | 3.0 | 9.0 | 0.00 | 0.00 | 0.00 | 60 | 1013.8 |
| 20260506031027 | 59 | 219 | 3.0 | 9.0 | 0.00 | 0.00 | 0.00 | 62 | 1013.8 |
| 20260506030526 | 59 | 178 | 1.0 | 3.0 | 0.00 | 0.00 | 0.00 | 64 | 1013.6 |
| 20260506030034 | 59 | 178 | 1.0 | 6.0 | 0.00 | 0.00 | 0.00 | 64 | 1013.6 |
| 20260506025527 | 59 | 192 | 1.0 | 7.0 | 0.00 | 0.00 | 0.00 | 62 | 1013.7 |
| 20260506025026 | 60 | 192 | 4.0 | 7.0 | 0.00 | 0.00 | 0.00 | 61 | 1013.7 |
| 20260506024539 | 59 | 175 | 1.0 | 5.0 | 0.00 | 0.00 | 0.00 | 62 | 1013.9 |
| 20260506024027 | 60 | 180 | 2.0 | 6.0 | 0.00 | 0.00 | 0.00 | 62 | 1013.8 |
| 20260506023527 | 59 | 186 | 3.0 | 6.0 | 0.00 | 0.00 | 0.00 | 63 | 1013.8 |
| 20260506023041 | 59 | 180 | 4.0 | 6.0 | 0.00 | 0.00 | 0.00 | 63 | 1013.8 |
| 20260506022527 | 59 | 175 | 2.0 | 6.0 | 0.00 | 0.00 | 0.00 | 63 | 1013.9 |
| 20260506022027 | 60 | 173 | 3.0 | 6.0 | 0.00 | 0.00 | 0.00 | 62 | 1013.9 |
| 20260506021538 | 60 | 173 | 2.0 | 6.0 | 0.00 | 0.00 | 0.00 | 62 | 1013.9 |
| 20260506021027 | 61 | 202 | 3.0 | 6.0 | 0.00 | 0.00 | 0.00 | 61 | 1014.0 |
| 20260506020527 | 60 | 177 | 3.0 | 5.0 | 0.00 | 0.00 | 0.00 | 61 | 1013.9 |
| 20260506020036 | 60 | 202 | 3.0 | 6.0 | 0.00 | 0.00 | 0.00 | 62 | 1014.0 |
| 20260506015530 | 60 | 181 | 3.0 | 6.0 | 0.00 | 0.00 | 0.00 | 61 | 1014.0 |
| 20260506015028 | 60 | 175 | 3.0 | 7.0 | 0.00 | 0.00 | 0.00 | 62 | 1014.0 |
| 20260506014544 | 60 | 183 | 3.0 | 7.0 | 0.00 | 0.00 | 0.00 | 62 | 1014.1 |
| 20260506014027 | 60 | 171 | 4.0 | 8.0 | 0.00 | 0.00 | 0.00 | 62 | 1014.0 |
| 20260506013526 | 59 | 171 | 4.0 | 8.0 | 0.00 | 0.00 | 0.00 | 63 | 1014.1 |
| 20260506013036 | 59 | 191 | 3.0 | 7.0 | 0.00 | 0.00 | 0.00 | 63 | 1014.1 |
| 20260506012526 | 59 | 170 | 4.0 | 7.0 | 0.00 | 0.00 | 0.00 | 63 | 1014.0 |
| 20260506012030 | 59 | 169 | 4.0 | 6.0 | 0.00 | 0.00 | 0.00 | 63 | 1014.1 |
| 20260506011543 | 59 | 172 | 2.0 | 5.0 | 0.00 | 0.00 | 0.00 | 63 | 1014.1 |
| 20260506011027 | 59 | 175 | 2.0 | 5.0 | 0.00 | 0.00 | 0.00 | 62 | 1014.1 |
| 20260506010528 | 59 | 172 | 3.0 | 5.0 | 0.00 | 0.00 | 0.00 | 63 | 1014.1 |
| 20260506010037 | 59 | 181 | 2.0 | 4.0 | 0.00 | 0.00 | 0.00 | 62 | 1014.1 |
| 20260506005527 | 59 | 196 | 1.0 | 4.0 | 0.00 | 0.00 | 0.00 | 62 | 1014.1 |
| 20260506005029 | 59 | 196 | 1.0 | 4.0 | 0.00 | 0.00 | 0.00 | 62 | 1014.2 |
| 20260506004542 | 59 | 0 | 1.0 | 3.0 | 0.00 | 0.00 | 0.00 | 62 | 1014.2 |
| 20260506004026 | 59 | 0 | 1.0 | 4.0 | 0.00 | 0.00 | 0.00 | 62 | 1014.2 |
| 20260506003526 | 60 | 196 | 2.0 | 4.0 | 0.00 | 0.00 | 0.00 | 62 | 1014.2 |
| 20260506003034 | 60 | 196 | 2.0 | 5.0 | 0.00 | 0.00 | 0.00 | 62 | 1014.2 |
| 20260506002526 | 60 | 193 | 3.0 | 5.0 | 0.00 | 0.00 | 0.00 | 63 | 1014.2 |
| 20260506002026 | 60 | 192 | 2.0 | 5.0 | 0.00 | 0.00 | 0.00 | 63 | 1014.3 |
| 20260506001604 | 60 | 196 | 2.0 | 5.0 | 0.00 | 0.00 | 0.00 | 62 | 1014.3 |
| 20260506001027 | 60 | 207 | 3.0 | 7.0 | 0.00 | 0.00 | 0.00 | 62 | 1014.2 |
| 20260506000527 | 60 | 217 | 3.0 | 7.0 | 0.00 | 0.00 | 0.00 | 62 | 1014.1 |
| 20260506000045 | 60 | 220 | 4.0 | 7.0 | 0.00 | 0.00 | 0.00 | 62 | 1014.2 |
| 20260505235527 | 60 | 236 | 2.0 | 5.0 | 0.00 | 0.00 | 0.00 | 61 | 1014.2 |
| 20260505235027 | 61 | 234 | 2.0 | 5.0 | 0.00 | 0.00 | 0.00 | 61 | 1014.3 |
| 20260505234536 | 60 | 217 | 3.0 | 5.0 | 0.00 | 0.00 | 0.00 | 61 | 1014.4 |
| 20260505234026 | 60 | 219 | 4.0 | 5.0 | 0.00 | 0.00 | 0.00 | 61 | 1014.3 |
| 20260505233526 | 60 | 199 | 3.0 | 6.0 | 0.00 | 0.00 | 0.00 | 61 | 1014.3 |
| 20260505233032 | 60 | 0 | 2.0 | 6.0 | 0.00 | 0.00 | 0.00 | 61 | 1014.3 |
| 20260505232526 | 60 | 180 | 2.0 | 5.0 | 0.00 | 0.00 | 0.00 | 61 | 1014.4 |
| 20260505232026 | 60 | 206 | 1.0 | 5.0 | 0.00 | 0.00 | 0.00 | 61 | 1014.4 |
| 20260505231534 | 60 | 207 | 1.0 | 5.0 | 0.00 | 0.00 | 0.00 | 61 | 1014.5 |
| 20260505231026 | 60 | 192 | 2.0 | 5.0 | 0.00 | 0.00 | 0.00 | 60 | 1014.5 |
| 20260505230526 | 60 | 227 | 2.0 | 5.0 | 0.00 | 0.00 | 0.00 | 61 | 1014.5 |
| 20260505230039 | 60 | 229 | 2.0 | 5.0 | 0.00 | 0.00 | 0.00 | 61 | 1014.4 |
| 20260505225528 | 59 | 178 | 3.0 | 5.0 | 0.00 | 0.00 | 0.00 | 62 | 1014.6 |
| 20260505225027 | 59 | 158 | 1.0 | 3.0 | 0.00 | 0.00 | 0.00 | 65 | 1014.6 |
| 20260505224539 | 59 | 158 | 0.0 | 2.0 | 0.00 | 0.00 | 0.00 | 66 | 1014.6 |
| 20260505224030 | 60 | 158 | 0.0 | 2.0 | 0.00 | 0.00 | 0.00 | 65 | 1014.6 |
| 20260505223528 | 60 | 158 | 1.0 | 2.0 | 0.00 | 0.00 | 0.00 | 65 | 1014.7 |
| 20260505223042 | 60 | 158 | 1.0 | 2.0 | 0.00 | 0.00 | 0.00 | 65 | 1014.6 |
| 20260505222526 | 60 | 158 | 0.0 | 2.0 | 0.00 | 0.00 | 0.00 | 64 | 1014.7 |
| 20260505222028 | 60 | 0 | 0.0 | 2.0 | 0.00 | 0.00 | 0.00 | 64 | 1014.7 |
| 20260505221533 | 60 | 0 | 0.0 | 1.0 | 0.00 | 0.00 | 0.00 | 64 | 1014.6 |
| 20260505221026 | 60 | 0 | 0.0 | 1.0 | 0.00 | 0.00 | 0.00 | 65 | 1014.6 |
| 20260505220526 | 60 | 0 | 0.0 | 1.0 | 0.00 | 0.00 | 0.00 | 64 | 1014.7 |
| 20260505220044 | 60 | 0 | 0.0 | 3.0 | 0.00 | 0.00 | 0.00 | 63 | 1014.6 |
| 20260505215526 | 60 | 0 | 0.0 | 5.0 | 0.00 | 0.00 | 0.00 | 63 | 1014.6 |
| 20260505215026 | 61 | 0 | 2.0 | 6.0 | 0.00 | 0.00 | 0.00 | 63 | 1014.7 |
| 20260505214557 | 61 | 158 | 3.0 | 6.0 | 0.00 | 0.00 | 0.00 | 63 | 1014.6 |
| 20260505214026 | 61 | 169 | 3.0 | 5.0 | 0.00 | 0.00 | 0.00 | 63 | 1014.6 |
| 20260505213531 | 61 | 175 | 2.0 | 4.0 | 0.00 | 0.00 | 0.00 | 63 | 1014.7 |
| 20260505213051 | 61 | 177 | 2.0 | 3.0 | 0.00 | 0.00 | 0.00 | 63 | 1014.8 |
| 20260505212527 | 60 | 177 | 2.0 | 4.0 | 0.00 | 0.00 | 0.00 | 63 | 1014.8 |
| 20260505212027 | 60 | 180 | 2.0 | 4.0 | 0.00 | 0.00 | 0.00 | 63 | 1014.8 |
| 20260505211536 | 60 | 180 | 2.0 | 4.0 | 0.00 | 0.00 | 0.00 | 62 | 1014.8 |
| 20260505211026 | 60 | 186 | 1.0 | 3.0 | 0.00 | 0.00 | 0.00 | 61 | 1014.9 |
| 20260505210526 | 61 | 186 | 0.0 | 2.0 | 0.00 | 0.00 | 0.00 | 60 | 1014.9 |
| 20260505210042 | 61 | 0 | 0.0 | 2.0 | 0.00 | 0.00 | 0.00 | 60 | 1014.8 |
| 20260505205526 | 61 | 0 | 0.0 | 3.0 | 0.00 | 0.00 | 0.00 | 61 | 1014.7 |
| 20260505205030 | 61 | 186 | 1.0 | 3.0 | 0.00 | 0.00 | 0.00 | 60 | 1014.7 |
| 20260505204536 | 61 | 186 | 0.0 | 2.0 | 0.00 | 0.00 | 0.00 | 61 | 1014.7 |
| 20260505204026 | 61 | 186 | 1.0 | 3.0 | 0.00 | 0.00 | 0.00 | 61 | 1014.7 |
| 20260505203526 | 61 | 186 | 1.0 | 3.0 | 0.00 | 0.00 | 0.00 | 61 | 1014.8 |
| 20260505203045 | 61 | 186 | 1.0 | 3.0 | 0.00 | 0.00 | 0.00 | 61 | 1014.9 |
| 20260505202525 | 61 | 187 | 0.0 | 1.0 | 0.00 | 0.00 | 0.00 | 61 | 1014.9 |
| 20260505202028 | 62 | 0 | 0.0 | 0.0 | 0.00 | 0.00 | 0.00 | 61 | 1014.9 |
| 20260505201548 | 62 | 0 | 0.0 | 1.0 | 0.00 | 0.00 | 0.00 | 61 | 1014.9 |
| 20260505201027 | 62 | 0 | 0.0 | 3.0 | 0.00 | 0.00 | 0.00 | 60 | 1014.9 |
| 20260505200528 | 62 | 0 | 0.0 | 3.0 | 0.00 | 0.00 | 0.00 | 60 | 1014.9 |
| 20260505200037 | 62 | 187 | 2.0 | 3.0 | 0.00 | 0.00 | 0.00 | 59 | 1014.9 |
| 20260505195526 | 63 | 188 | 1.0 | 3.0 | 0.00 | 0.00 | 0.00 | 59 | 1014.9 |
| 20260505195026 | 63 | 190 | 1.0 | 3.0 | 0.00 | 0.00 | 0.00 | 59 | 1014.9 |
| 20260505194537 | 63 | 190 | 1.0 | 4.0 | 0.00 | 0.00 | 0.00 | 59 | 1014.9 |
| 20260505194029 | 63 | 190 | 1.0 | 4.0 | 0.00 | 0.00 | 0.00 | 59 | 1014.9 |
| 20260505193526 | 63 | 195 | 2.0 | 4.0 | 0.00 | 0.00 | 0.00 | 59 | 1014.8 |
| 20260505193046 | 63 | 254 | 0.0 | 2.0 | 0.00 | 0.00 | 0.00 | 59 | 1014.9 |
| 20260505192526 | 64 | 0 | 0.0 | 0.0 | 0.00 | 0.00 | 0.00 | 58 | 1015.0 |
| 20260505192028 | 63 | 0 | 0.0 | 0.0 | 0.00 | 0.00 | 0.00 | 59 | 1015.0 |
| 20260505191550 | 64 | 0 | 0.0 | 0.0 | 0.00 | 0.00 | 0.00 | 58 | 1014.9 |
| 20260505191027 | 64 | 0 | 0.0 | 0.0 | 0.00 | 0.00 | 0.00 | 58 | 1014.8 |
| 20260505190525 | 64 | 0 | 0.0 | 0.0 | 0.00 | 0.00 | 0.00 | 58 | 1014.7 |
| 20260505190044 | 64 | 0 | 0.0 | 0.0 | 0.00 | 0.00 | 0.00 | 57 | 1014.8 |
| 20260505185526 | 65 | 0 | 0.0 | 0.0 | 0.00 | 0.00 | 0.00 | 57 | 1014.7 |
| 20260505185111 | 65 | 0 | 0.0 | 0.0 | 0.00 | 0.00 | 0.00 | 56 | 1014.6 |
| 20260505184533 | 65 | 0 | 0.0 | 0.0 | 0.00 | 0.00 | 0.00 | 55 | 1014.6 |
| 20260505184029 | 65 | 0 | 0.0 | 3.0 | 0.00 | 0.00 | 0.00 | 56 | 1014.6 |
| 20260505183530 | 65 | 0 | 0.0 | 3.0 | 0.00 | 0.00 | 0.00 | 56 | 1014.5 |
| 20260505183047 | 66 | 360 | 1.0 | 3.0 | 0.00 | 0.00 | 0.00 | 56 | 1014.6 |
| 20260505182526 | 66 | 0 | 0.0 | 2.0 | 0.00 | 0.00 | 0.00 | 56 | 1014.4 |
| 20260505182026 | 66 | 11 | 1.0 | 2.0 | 0.00 | 0.00 | 0.00 | 56 | 1014.4 |
| 20260505181533 | 66 | 0 | 0.0 | 5.0 | 0.00 | 0.00 | 0.00 | 56 | 1014.4 |
| 20260505181030 | 66 | 14 | 0.0 | 5.0 | 0.00 | 0.00 | 0.00 | 56 | 1014.3 |
| 20260505180526 | 67 | 15 | 2.0 | 5.0 | 0.00 | 0.00 | 0.00 | 55 | 1014.2 |
| 20260505180042 | 67 | 225 | 0.0 | 3.0 | 0.00 | 0.00 | 0.00 | 55 | 1014.2 |
| 20260505175526 | 68 | 224 | 0.0 | 3.0 | 0.00 | 0.00 | 0.00 | 53 | 1014.2 |
| 20260505175026 | 68 | 208 | 1.0 | 4.0 | 0.00 | 0.00 | 0.00 | 53 | 1014.2 |
| 20260505174540 | 68 | 208 | 0.0 | 6.0 | 0.00 | 0.00 | 0.00 | 53 | 1014.1 |
| 20260505174026 | 68 | 207 | 2.0 | 6.0 | 0.00 | 0.00 | 0.00 | 52 | 1014.0 |
| 20260505173526 | 68 | 208 | 3.0 | 6.0 | 0.00 | 0.00 | 0.00 | 51 | 1013.8 |
| 20260505173040 | 68 | 205 | 1.0 | 6.0 | 0.00 | 0.00 | 0.00 | 51 | 1013.8 |
| 20260505172526 | 68 | 206 | 3.0 | 6.0 | 0.00 | 0.00 | 0.00 | 51 | 1013.9 |
| 20260505172029 | 68 | 157 | 1.0 | 5.0 | 0.00 | 0.00 | 0.00 | 51 | 1013.9 |
| 20260505171541 | 68 | 137 | 3.0 | 8.0 | 0.00 | 0.00 | 0.00 | 48 | 1013.9 |
| 20260505171027 | 67 | 130 | 4.0 | 8.0 | 0.00 | 0.00 | 0.00 | 53 | 1014.0 |
| 20260505170526 | 67 | 111 | 5.0 | 8.0 | 0.00 | 0.00 | 0.00 | 55 | 1013.9 |
| 20260505170034 | 67 | 84 | 4.0 | 8.0 | 0.00 | 0.00 | 0.00 | 56 | 1014.0 |
| 20260505165526 | 67 | 84 | 3.0 | 12.0 | 0.00 | 0.00 | 0.00 | 56 | 1013.9 |
| 20260505165026 | 67 | 101 | 6.0 | 12.0 | 0.00 | 0.00 | 0.00 | 57 | 1013.9 |
| 20260505164538 | 67 | 103 | 6.0 | 11.0 | 0.00 | 0.00 | 0.00 | 60 | 1014.0 |
| 20260505164026 | 67 | 96 | 5.0 | 13.0 | 0.00 | 0.00 | 0.00 | 61 | 1014.1 |
| 20260505163525 | 67 | 71 | 4.0 | 13.0 | 0.00 | 0.00 | 0.00 | 61 | 1014.2 |
| 20260505163036 | 68 | 103 | 6.0 | 11.0 | 0.00 | 0.00 | 0.00 | 61 | 1014.2 |
| 20260505162526 | 68 | 94 | 5.0 | 12.0 | 0.00 | 0.00 | 0.00 | 60 | 1014.1 |
| 20260505162026 | 68 | 83 | 4.0 | 12.0 | 0.00 | 0.00 | 0.00 | 62 | 1014.1 |
| 20260505161537 | 68 | 84 | 5.0 | 15.0 | 0.00 | 0.00 | 0.00 | 61 | 1014.0 |
| 20260505161026 | 69 | 117 | 9.0 | 15.0 | 0.00 | 0.00 | 0.00 | 60 | 1014.0 |
| 20260505160527 | 69 | 119 | 7.0 | 12.0 | 0.00 | 0.00 | 0.00 | 58 | 1014.0 |
| 20260505153046 | 72 | 80 | 2.0 | 9.0 | 0.00 | 0.00 | 0.00 | 50 | 1013.8 |
| 20260505152527 | 72 | 79 | 2.0 | 12.0 | 0.00 | 0.00 | 0.00 | 49 | 1013.8 |
| 20260505152028 | 71 | 68 | 5.0 | 12.0 | 0.00 | 0.00 | 0.00 | 49 | 1013.9 |
| 20260505151540 | 72 | 96 | 6.0 | 11.0 | 0.00 | 0.00 | 0.00 | 47 | 1013.9 |
| 20260505151027 | 72 | 86 | 6.0 | 10.0 | 0.00 | 0.00 | 0.00 | 47 | 1014.0 |
| 20260505150526 | 73 | 138 | 4.0 | 10.0 | 0.00 | 0.00 | 0.00 | 45 | 1013.9 |
| 20260505140531 | 75 | 257 | 5.0 | 13.0 | 0.00 | 0.00 | 0.00 | 32 | 1013.9 |
| 20260505125026 | 74 | 217 | 8.0 | 19.0 | 0.00 | 0.00 | 0.00 | 32 | 1014.5 |
| 20260505124540 | 74 | 222 | 9.0 | 19.0 | 0.00 | 0.00 | 0.00 | 33 | 1014.5 |
| 20260505124026 | 74 | 259 | 11.0 | 19.0 | 0.00 | 0.00 | 0.00 | 33 | 1014.5 |
| 20260505123526 | 74 | 236 | 5.0 | 14.0 | 0.00 | 0.00 | 0.00 | 33 | 1014.6 |
| 20260505123049 | 73 | 206 | 8.0 | 14.0 | 0.00 | 0.00 | 0.00 | 33 | 1014.7 |
| 20260505122525 | 74 | 219 | 4.0 | 17.0 | 0.00 | 0.00 | 0.00 | 34 | 1014.7 |
| 20260505122027 | 74 | 210 | 8.0 | 17.0 | 0.00 | 0.00 | 0.00 | 33 | 1014.7 |
| 20260505121535 | 73 | 225 | 9.0 | 16.0 | 0.00 | 0.00 | 0.00 | 34 | 1014.7 |
| 20260505121027 | 74 | 173 | 4.0 | 18.0 | 0.00 | 0.00 | 0.00 | 35 | 1014.9 |
| 20260505120526 | 73 | 239 | 6.0 | 18.0 | 0.00 | 0.00 | 0.00 | 36 | 1014.8 |
| 20260505120046 | 73 | 240 | 9.0 | 16.0 | 0.00 | 0.00 | 0.00 | 36 | 1014.9 |
| 20260505115526 | 74 | 229 | 7.0 | 17.0 | 0.00 | 0.00 | 0.00 | 36 | 1015.0 |
| 20260505115026 | 73 | 221 | 8.0 | 17.0 | 0.00 | 0.00 | 0.00 | 37 | 1015.0 |
| 20260505114545 | 74 | 221 | 8.0 | 15.0 | 0.00 | 0.00 | 0.00 | 36 | 1015.1 |
| 20260505114026 | 73 | 223 | 5.0 | 15.0 | 0.00 | 0.00 | 0.00 | 38 | 1015.0 |
| 20260505113526 | 73 | 215 | 8.0 | 17.0 | 0.00 | 0.00 | 0.00 | 39 | 1015.0 |
| 20260505113044 | 73 | 206 | 7.0 | 17.0 | 0.00 | 0.00 | 0.00 | 40 | 1015.0 |
| 20260505112526 | 74 | 209 | 8.0 | 15.0 | 0.00 | 0.00 | 0.00 | 40 | 1015.1 |
| 20260505112026 | 74 | 271 | 7.0 | 18.0 | 0.00 | 0.00 | 0.00 | 41 | 1015.1 |
| 20260505111538 | 73 | 262 | 7.0 | 18.0 | 0.00 | 0.00 | 0.00 | 40 | 1015.1 |
| 20260505111026 | 74 | 192 | 5.0 | 15.0 | 0.00 | 0.00 | 0.00 | 40 | 1015.3 |
| 20260505110526 | 73 | 210 | 6.0 | 14.0 | 0.00 | 0.00 | 0.00 | 40 | 1015.2 |
| 20260505102022 | 72 | 186 | 10.0 | 19.0 | 0.00 | 0.00 | 0.00 | 41 | 1015.3 |
| 20260505101539 | 72 | 241 | 6.0 | 14.0 | 0.00 | 0.00 | 0.00 | 43 | 1015.4 |
| 20260505101026 | 72 | 213 | 8.0 | 14.0 | 0.00 | 0.00 | 0.00 | 42 | 1015.4 |
| 20260505100529 | 72 | 271 | 4.0 | 14.0 | 0.00 | 0.00 | 0.00 | 45 | 1015.4 |
| 20260505100038 | 72 | 250 | 6.0 | 14.0 | 0.00 | 0.00 | 0.00 | 41 | 1015.4 |
| 20260505095527 | 72 | 215 | 7.0 | 16.0 | 0.00 | 0.00 | 0.00 | 44 | 1015.4 |
| 20260505095025 | 71 | 171 | 8.0 | 16.0 | 0.00 | 0.00 | 0.00 | 44 | 1015.7 |
| 20260505094537 | 71 | 251 | 7.0 | 14.0 | 0.00 | 0.00 | 0.00 | 45 | 1015.5 |
| 20260505094025 | 72 | 231 | 5.0 | 11.0 | 0.00 | 0.00 | 0.00 | 42 | 1015.5 |
| 20260505093525 | 72 | 241 | 4.0 | 12.0 | 0.00 | 0.00 | 0.00 | 42 | 1015.6 |
| 20260505093042 | 71 | 157 | 7.0 | 13.0 | 0.00 | 0.00 | 0.00 | 43 | 1015.6 |
| 20260505092523 | 70 | 214 | 6.0 | 13.0 | 0.00 | 0.00 | 0.00 | 41 | 1015.7 |
| 20260505092026 | 70 | 273 | 7.0 | 13.0 | 0.00 | 0.00 | 0.00 | 40 | 1015.7 |
| 20260505091542 | 71 | 221 | 4.0 | 9.0 | 0.00 | 0.00 | 0.00 | 37 | 1015.8 |
| 20260505091025 | 70 | 188 | 3.0 | 9.0 | 0.00 | 0.00 | 0.00 | 37 | 1015.7 |
| 20260505090526 | 71 | 261 | 4.0 | 10.0 | 0.00 | 0.00 | 0.00 | 38 | 1015.8 |
| 20260505090050 | 70 | 238 | 3.0 | 10.0 | 0.00 | 0.00 | 0.00 | 34 | 1015.7 |
| 20260505085526 | 70 | 253 | 3.0 | 9.0 | 0.00 | 0.00 | 0.00 | 37 | 1015.8 |
| 20260505085026 | 70 | 247 | 3.0 | 9.0 | 0.00 | 0.00 | 0.00 | 37 | 1015.9 |
| 20260505084538 | 70 | 247 | 4.0 | 9.0 | 0.00 | 0.00 | 0.00 | 37 | 1015.9 |
| 20260505084026 | 70 | 223 | 4.0 | 12.0 | 0.00 | 0.00 | 0.00 | 37 | 1015.8 |
| 20260505083525 | 69 | 188 | 4.0 | 12.0 | 0.00 | 0.00 | 0.00 | 36 | 1016.0 |
| 20260505083034 | 69 | 240 | 7.0 | 12.0 | 0.00 | 0.00 | 0.00 | 37 | 1016.0 |
| 20260505082529 | 69 | 228 | 5.0 | 12.0 | 0.00 | 0.00 | 0.00 | 37 | 1015.9 |
| 20260505082026 | 69 | 242 | 5.0 | 12.0 | 0.00 | 0.00 | 0.00 | 37 | 1016.0 |
| 20260505081544 | 68 | 222 | 6.0 | 11.0 | 0.00 | 0.00 | 0.00 | 38 | 1016.0 |
| 20260505081026 | 68 | 231 | 5.0 | 11.0 | 0.00 | 0.00 | 0.00 | 38 | 1016.0 |
| 20260505080525 | 68 | 224 | 6.0 | 10.0 | 0.00 | 0.00 | 0.00 | 37 | 1016.0 |
| 20260505080048 | 68 | 257 | 3.0 | 10.0 | 0.00 | 0.00 | 0.00 | 39 | 1016.0 |
| 20260505075522 | 67 | 223 | 5.0 | 10.0 | 0.00 | 0.00 | 0.00 | 38 | 1015.9 |
| 20260505075025 | 68 | 248 | 3.0 | 9.0 | 0.00 | 0.00 | 0.00 | 39 | 1016.0 |
| 20260505074535 | 67 | 257 | 4.0 | 9.0 | 0.00 | 0.00 | 0.00 | 40 | 1016.0 |
| 20260505074026 | 67 | 242 | 6.0 | 9.0 | 0.00 | 0.00 | 0.00 | 39 | 1016.0 |
| 20260505073526 | 67 | 257 | 5.0 | 9.0 | 0.00 | 0.00 | 0.00 | 40 | 1016.0 |
| 20260505073052 | 66 | 239 | 4.0 | 9.0 | 0.00 | 0.00 | 0.00 | 41 | 1016.0 |
| 20260505072526 | 66 | 264 | 5.0 | 9.0 | 0.00 | 0.00 | 0.00 | 42 | 1016.0 |
| 20260505072027 | 65 | 272 | 3.0 | 8.0 | 0.00 | 0.00 | 0.00 | 42 | 1016.1 |
| 20260505071537 | 65 | 265 | 2.0 | 9.0 | 0.00 | 0.00 | 0.00 | 43 | 1016.1 |
| 20260505071026 | 65 | 239 | 3.0 | 9.0 | 0.00 | 0.00 | 0.00 | 44 | 1016.1 |
| 20260505070528 | 65 | 204 | 3.0 | 8.0 | 0.00 | 0.00 | 0.00 | 44 | 1015.9 |
| 20260505070044 | 64 | 215 | 3.0 | 8.0 | 0.00 | 0.00 | 0.00 | 44 | 1016.0 |